Miscellaneous Local Product
Issued by NWS North Platte, NE

Home | Current Version | Previous Version | Graphics & Text | Print | Product List | Glossary On
Versions: 1 2 3 4 5 6 7 8 9 10 11 12 13 14 15 16 17 18 19 20 21 22 23 24 25 26 27 28 29 30 31 32 33 34 35 36 37 38 39 40 41 42 43 44 45 46 47 48 49 50
311
AXUS43 KLBF 272110
MISLBF


WESTERN AND NORTH CENTRAL NEBRASKA HOURLY WEATHER ROUNDUP
NATIONAL WEATHER SERVICE NORTH PLATTE NE
400 PM CDT FRI MAY 27 2016

NOTE: "FAIR" INDICATES FEW OR NO CLOUDS BELOW 12,000 FEET WITH NO
SIGNIFICANT WEATHER AND/OR OBSTRUCTIONS TO VISIBILITY.

NOTE: STATIONS NOT REPORTING VARIABLES SUCH AS SKY/WEATHER OR
PRESSURE ARE PROVIDED BY RAWS AND APRS NETWORKS AND ARE NOT UNDER
NATIONAL WEATHER SERVICE QUALITY CONTROL.

...OBSERVATIONS IN AND NEAR THE EASTERN PANHANDLE OF NEBRASKA...

CITY           SKY/WX    TMP DP  RH WIND       PRES   REMARKS
PINE RIDGE     CLOUDY    60  47  61 CALM      29.86S
CHADRON        CLOUDY    59  48  67 SE5       29.87F
ALLIANCE       PTSUNNY   58  49  72 N12       29.87S
SIDNEY         CLOUDY    57  46  66 NE15      29.88F
CRESCENT LAKE    N/A     60  46  61 NE10G18     N/A
BIG SPRINGS      N/A     59  52  77 N9          N/A
$$

...OBSERVATIONS IN NORTHERN NEBRASKA AND FAR SOUTHERN SOUTH DAKOTA...

CITY           SKY/WX    TMP DP  RH WIND       PRES   REMARKS
WINNER         FAIR      70  53  54 NE12      29.80F
VALENTINE      CLOUDY    67  48  50 NE13      29.81F
THEDFORD       PTSUNNY   65  54  66 N10G18    29.81F
AINSWORTH      CLOUDY    64  52  65 N9G16     29.80F
O`NEILL        MOSUNNY   70  59  68 NE9       29.77F
ORD            CLOUDY    72  57  59 N6        29.73F
BROKEN BOW     PTSUNNY   66  56  70 NE7       29.76F
BUTTE            N/A     65  58  79 N10         N/A
CHAMBERS         N/A     75  59  58 N5          N/A
EWING            N/A     72  62  69 N7G15       N/A
$$

...OBSERVATIONS IN SOUTHWEST NEBRASKA AND FAR NORTHEAST COLORADO...

CITY           SKY/WX    TMP DP  RH WIND       PRES   REMARKS
WRAY           CLOUDY    61  50  67 N28G35    29.79F
IMPERIAL       LGT RAIN  58  54  86 N10       29.78F
OGALLALA       CLOUDY    55  52  89 N14       29.83S
NORTH PLATTE   MOSUNNY   66  54  65 NE17      29.76F
MCCOOK         CLOUDY    63  55  75 E14       29.73F
LEXINGTON      CLOUDY    63  57  80 E7        29.75F
PAXTON           N/A     58  54  88 N9          N/A
STAPLETON        N/A     64  56  75 CALM        N/A
GOTHENBURG       N/A     65  53  65 E5          N/A
CALLAWAY         N/A     64  59  84 E12         N/A
$$

...OBSERVATIONS IN CENTRAL LINCOLN COUNTY AREA...

CITY           SKY/WX    TMP DP  RH WIND       PRES   REMARKS
N.P. AIRPORT   MOSUNNY   66  54  65 NE17      29.76F
N.P. DOWNTOWN    N/A     64  55  72 NE14G24     N/A
N.P. SOUTHEAST   N/A     66  55  69 NE8G17      N/A
N.P. HILLCREST   N/A     64  55  73 NE22G29     N/A
$$

...SOME OBSERVATIONS FROM AROUND THE REGION...

CITY           SKY/WX    TMP DP  RH WIND       PRES   REMARKS
DENVER         CLOUDY    55  43  63 NE9       29.91S
LARAMIE        CLOUDY    53  33  46 NE10      29.93F
CHEYENNE       CLOUDY    53  42  66 E15       29.92R
SCOTTSBLUFF    CLOUDY    59  44  57 SE7       29.89F
RAPID CITY     CLOUDY    62  48  60 W6        29.84F
BISMARCK       CLOUDY    68  48  48 CALM      29.81F
PIERRE         CLOUDY    70  51  51 NE6       29.78F
SIOUX FALLS    PTSUNNY   73  57  57 N7        29.75F
OMAHA          PTSUNNY   78  60  53 NE7       29.72F
GRAND ISLAND   CLOUDY    69  57  65 E8        29.73F
KANSAS CITY    TSTM      73  67  81 W3        29.74F
WICHITA        TSTM      70  63  78 W3        29.65F
OKLAHOMA CITY  MOSUNNY   80  63  55 S8        29.68F
DALLAS         PTSUNNY   80  64  58 S15G22    29.72S
AMARILLO       MOSUNNY   73  36  25 NW12G21   29.78F
DODGE CITY     PTSUNNY   73  47  39 SE5       29.66F
HAYS           PTSUNNY   45 N/A N/A E8        29.66F
GOODLAND       CLOUDY    61  55  81 NE15G23   29.74S
$$




USA.gov is the U.S. government's official web portal to all federal, state and local government web resources and services.